Date String (YYYY-MM-DD hh:mm:ss) UTC,Instrument flags,Ambient pressure (hPa),Sample flow (lpm),Bypass flow (lpm),Sample temperature (°C),Ambient temperature (°C),ASC tube jacket temperature (°C),LED temperature (°C),Box temperature (°C),Sample RH (%),Span deviation,Mass concentration (μg/m³),Mass concentration (μg/m³),Mass concentration (μg/m³)
DateTimeUTC,F1_M11,P_M11,Q1_M11,Q2_M11,T1_M11,T2_M11,T3_M11,T4_M11,T5_M11,U1_M11,ZSPAN_M11,X0_M11,X2_M11,X1_M11
2021-11-13 20:00:00,,0824.9,5.00,0.00,26.5,25.7,00.0,35.5,28.4,12.5,0000.0,0002.48,0000.86,0000.36
2021-11-13 20:01:00,,0824.9,4.99,0.00,26.5,25.7,00.0,35.5,28.3,12.4,0000.0,0002.30,0000.80,0000.35
2021-11-13 20:02:00,,0824.9,5.00,0.00,26.5,25.7,00.0,35.5,28.3,12.4,0000.0,0002.21,0000.76,0000.35
2021-11-13 20:03:00,,0824.9,4.99,0.00,26.5,25.7,00.0,35.5,28.3,12.3,0000.0,0001.81,0000.72,0000.34
2021-11-13 20:04:00,,0825.1,5.00,0.00,26.5,25.7,00.0,35.5,28.2,12.3,0000.0,0001.56,0000.63,0000.33
2021-11-13 20:05:00,,0825.0,5.00,0.00,26.5,25.7,00.0,35.5,28.2,12.3,0000.0,0001.50,0000.61,0000.32
2021-11-13 20:06:00,,0825.1,5.00,0.00,26.5,25.7,00.0,35.5,28.2,12.4,0000.0,0001.43,0000.62,0000.33
2021-11-13 20:07:00,,0825.1,4.98,0.00,26.5,25.7,00.0,35.5,28.3,12.5,0000.0,0001.09,0000.57,0000.33
2021-11-13 20:08:00,,0825.2,5.00,0.00,26.5,25.7,00.0,35.5,28.3,12.4,0000.0,0001.02,0000.57,0000.33
2021-11-13 20:09:00,,0825.2,5.00,0.00,26.5,25.7,00.0,35.5,28.3,12.5,0000.0,0001.05,0000.59,0000.32
2021-11-13 20:10:00,,0825.2,5.00,0.00,26.5,25.8,00.0,35.5,28.3,12.4,0000.0,0001.47,0000.58,0000.32
2021-11-13 20:11:00,,0825.2,5.01,0.00,26.5,25.8,00.0,35.5,28.3,12.4,0000.0,0001.58,0000.57,0000.32
2021-11-13 20:12:00,,0825.2,4.99,0.00,26.5,25.8,00.0,35.5,28.3,12.3,0000.0,0001.57,0000.57,0000.31
2021-11-13 20:13:00,,0825.2,5.01,0.00,26.6,25.8,00.0,35.5,28.3,12.1,0000.0,0001.66,0000.59,0000.31
2021-11-13 20:14:00,,0825.3,4.99,0.00,26.6,25.8,00.0,35.5,28.3,12.2,0000.0,0002.87,0000.61,0000.31
2021-11-13 20:15:00,,0825.3,5.01,0.00,26.6,25.8,00.0,35.5,28.3,12.3,0000.0,0002.98,0000.65,0000.32
2021-11-13 20:16:00,,0825.2,4.99,0.00,26.6,25.8,00.0,35.6,28.4,12.2,0000.0,0003.06,0000.68,0000.32
2021-11-13 20:17:00,,0825.3,5.01,0.00,26.6,25.8,00.0,35.6,28.4,12.2,0000.0,0002.99,0000.65,0000.32
2021-11-13 20:18:00,,0825.3,5.00,0.00,26.6,25.8,00.0,35.6,28.4,12.3,0000.0,0003.02,0000.65,0000.31
2021-11-13 20:19:00,,0825.3,5.01,0.00,26.6,25.8,00.0,35.6,28.4,12.2,0000.0,0003.07,0000.64,0000.30
2021-11-13 20:20:00,,0825.3,5.00,0.00,26.6,25.8,00.0,35.6,28.4,12.1,0000.0,0003.05,0000.63,0000.30
2021-11-13 20:21:00,,0825.3,5.01,0.00,26.6,25.9,00.0,35.6,28.4,12.1,0000.0,0002.64,0000.60,0000.30
2021-11-13 20:22:00,,0825.3,5.01,0.00,26.6,25.8,00.0,35.6,28.4,12.0,0000.0,0002.36,0000.58,0000.29
2021-11-13 20:23:00,,0825.3,5.00,0.00,26.6,25.9,00.0,35.6,28.5,12.0,0000.0,0002.42,0000.61,0000.30
2021-11-13 20:24:00,,0825.3,5.01,0.00,26.6,25.9,00.0,35.6,28.5,12.0,0000.0,0002.36,0000.60,0000.29
2021-11-13 20:25:00,,0825.3,5.00,0.00,26.7,25.9,00.0,35.6,28.5,12.1,0000.0,0001.13,0000.57,0000.29
2021-11-13 20:26:00,,0825.4,5.00,0.00,26.7,25.9,00.0,35.6,28.5,12.0,0000.0,0001.06,0000.54,0000.29
2021-11-13 20:27:00,,0825.4,4.99,0.00,26.7,25.9,00.0,35.6,28.5,11.9,0000.0,0001.20,0000.55,0000.29
2021-11-13 20:28:00,,0825.5,4.98,0.00,26.7,25.9,00.0,35.7,28.5,11.9,0000.0,0001.31,0000.56,0000.28
2021-11-13 20:29:00,,0825.5,5.01,0.00,26.7,25.9,00.0,35.7,28.5,11.9,0000.0,0001.19,0000.52,0000.28
2021-11-13 20:30:00,,0825.4,4.99,0.00,26.7,26.0,00.0,35.7,28.5,11.9,0000.0,0001.10,0000.48,0000.28
2021-11-13 20:31:00,,0825.5,5.01,0.00,26.7,26.0,00.0,35.7,28.5,11.9,0000.0,0001.22,0000.45,0000.28
2021-11-13 20:32:00,,0825.5,5.00,0.00,26.8,26.0,00.0,35.7,28.6,11.9,0000.0,0001.25,0000.46,0000.28
2021-11-13 20:33:00,,0825.5,5.00,0.00,26.8,26.0,00.0,35.7,28.6,11.9,0000.0,0001.30,0000.48,0000.28
2021-11-13 20:34:00,,0825.5,4.99,0.00,26.8,26.0,00.0,35.7,28.6,11.9,0000.0,0001.30,0000.47,0000.28
2021-11-13 20:35:00,,0825.5,5.00,0.00,26.8,26.0,00.0,35.7,28.6,12.0,0000.0,0001.21,0000.44,0000.28
2021-11-13 20:36:00,,0825.5,5.01,0.00,26.9,26.0,00.0,35.8,28.6,12.0,0000.0,0001.20,0000.44,0000.28
2021-11-13 20:37:00,,0825.6,4.99,0.00,26.9,26.1,00.0,35.8,28.7,12.0,0000.0,0001.18,0000.43,0000.28
2021-11-13 20:38:00,,0825.5,5.00,0.00,26.9,26.1,00.0,35.8,28.7,12.0,0000.0,0001.09,0000.42,0000.29
2021-11-13 20:39:00,,0825.5,5.02,0.00,26.9,26.1,00.0,35.8,28.7,12.0,0000.0,0001.09,0000.39,0000.29
2021-11-13 20:40:00,,0825.5,5.00,0.00,27.0,26.2,00.0,35.8,28.8,12.0,0000.0,0001.11,0000.40,0000.29
2021-11-13 20:41:00,,0825.5,4.99,0.00,27.0,26.2,00.0,35.9,28.8,12.1,0000.0,0001.12,0000.41,0000.29
2021-11-13 20:42:00,,0825.5,5.01,0.00,27.0,26.2,00.0,35.9,28.9,12.0,0000.0,0000.92,0000.40,0000.28
2021-11-13 20:43:00,,0825.5,5.00,0.00,27.0,26.2,00.0,35.9,28.9,12.0,0000.0,0000.89,0000.39,0000.28
2021-11-13 20:44:00,,0825.5,4.98,0.00,27.1,26.3,00.0,35.9,28.9,12.0,0000.0,0000.84,0000.37,0000.28
2021-11-13 20:45:00,,0825.5,5.00,0.00,27.1,26.3,00.0,35.9,28.9,12.0,0000.0,0000.90,0000.38,0000.28
2021-11-13 20:46:00,,0825.6,5.01,0.00,27.1,26.3,00.0,35.9,28.9,12.0,0000.0,0001.57,0000.39,0000.29
2021-11-13 20:47:00,,0825.6,4.99,0.00,27.1,26.3,00.0,36.0,28.9,12.0,0000.0,0001.68,0000.41,0000.29
2021-11-13 20:48:00,,0825.6,5.00,0.00,27.1,26.3,00.0,36.0,28.9,12.2,0000.0,0001.70,0000.43,0000.28
2021-11-13 20:49:00,,0825.6,5.01,0.00,27.2,26.3,00.0,36.0,29.0,12.2,0000.0,0001.58,0000.43,0000.28
2021-11-13 20:50:00,,0825.5,5.01,0.00,27.2,26.3,00.0,36.0,29.0,12.1,0000.0,0001.45,0000.42,0000.28
2021-11-13 20:51:00,,0825.5,5.00,0.00,27.2,26.3,00.0,36.0,29.0,11.9,0000.0,0001.46,0000.43,0000.29
2021-11-13 20:52:00,,0825.6,4.99,0.00,27.2,26.3,00.0,36.1,29.0,12.0,0000.0,0001.44,0000.43,0000.30
2021-11-13 20:53:00,,0825.6,5.02,0.00,27.2,26.4,00.0,36.1,29.0,12.1,0000.0,0002.01,0000.45,0000.30
2021-11-13 20:54:00,,0825.5,5.01,0.00,27.2,26.4,00.0,36.1,29.1,12.2,0000.0,0002.81,0000.48,0000.30
2021-11-13 20:55:00,,0825.5,4.99,0.00,27.3,26.4,00.0,36.1,29.1,12.2,0000.0,0002.88,0000.50,0000.31
2021-11-13 20:56:00,,0825.5,5.02,0.00,27.3,26.4,00.0,36.1,29.1,12.3,0000.0,0002.80,0000.48,0000.31
2021-11-13 20:57:00,,0825.6,4.99,0.00,27.3,26.4,00.0,36.1,29.1,12.3,0000.0,0002.10,0000.47,0000.31
2021-11-13 20:58:00,,0825.6,5.01,0.00,27.3,26.4,00.0,36.1,29.1,12.3,0000.0,0002.02,0000.45,0000.31
2021-11-13 20:59:00,,0825.6,4.98,0.00,27.3,26.4,00.0,36.2,29.1,12.4,0000.0,0002.01,0000.43,0000.32
